Tracking 23752 objects as of 24-Oct-2021
HD Live streaming from Space Station
objects crossing your sky now

FREGAT DEB

Track FREGAT DEB now!
10-day predictions


NORAD ID: 45814
Int'l Code: 2011-037AY
Perigee: 833.6 km
Apogee: 3,276.7 km
Inclination: 51.2 °
Period: 128.3 minutes
Semi major axis: 8426 km
RCS: Unknown
Launch date: July 18, 2011
Source: Commonwealth of Independent States (former USSR) (CIS)
Launch site: TYURATAM MISSILE AND SPACE COMPLEX (TTMTR)

Note: This is SATELLITE DEBRIS
aabbcc
Your satellite tracking list
Your tracking list is empty




NASA's NSSDC Master Catalog

Two Line Element Set (TLE):
1 45814U 11037AY  21279.67623930 -.00003258  00000-0 -91586-2 0  9992
2 45814  51.2331 262.7869 1449719 248.5409  95.4980 11.22425963 55129
Source of the keplerian elements: AFSPC